Weather in Shchomy

Ukraine / Sumi District     50°20′04″N   34°35′23″E
temp.,
°C
wind,
m/s
gust,
m/s
humid.,
%
clouds,
%
prec.,
mm/h
press.,
hPa
HPBL,
m
19 may, wed
wed1900:00+12se4897100 0.3 1002242
03:00+13sse5109726 2.3 1002360
06:00+11se5109748 0.0 1003322
09:00+15sse5681100 0.0 1003593
12:00+18se6766100 0.6 10041397
15:00+17se566990 2.6 10031103
18:00+16se3579100 2.1 1003537
21:00+13sse2386100 2.8 100331
20 may, thu
thu2000:00+12ssw2290100 0.1 100321
03:00+11sw3596100 0.3 1003105
06:00+11w5895100 0.1 1004536
09:00+11wsw5895100 0.3 1005624
12:00+12wsw5790100 0.1 1008790
15:00+12wsw5888100 0.2 1009802
18:00+13wnw478598 0.1 1010665
21:00+11w369269 0.1 1012221
21 may, fri
fri2100:00+9wnw2294100 0.0 101336
03:00+10n1188100 0.0 101410
06:00+10ne2386100 0.0 101565
09:00+14ene3471100 0.0 1015452
12:00+16ene4564100 0.0 1015851
15:00+17e4561100 0.0 10151206
18:00+14ese3480100 0.1 1016327
21:00+14nne4982100 0.3 1016252
22 may, sat
sat2200:00+13nne51082100 0.0 1015277
03:00+13ne51285100 0.0 1014346
06:00+13ne51287100 0.0 1014391
09:00+13nne61290100 0.1 1014417
12:00+17ne6882100 0.1 1014874
15:00+18ne6882100 0.2 1013790
18:00+18nne5986100 0.1 1012572
21:00+16ne4986100 0.1 1012371
23 may, sun
sun2300:00+13ene31096100 0.0 1011244
03:00+13nne3498100 0.0 101178
06:00+13ne2498100 0.0 1009111
09:00+18w118597 0.0 1009386
12:00+21w347475 0.0 1008975
15:00+21wsw466679 0.1 10081468
18:00+19w71078100 0.3 1008560
21:00+14wnw61183100 0.4 1011640